Location: Chippewa Lake
(41.0698°N, 81.9010°W)
Time: 02:10:43
(UTC+00:00)

Cosmos 1354 Rocket - Pass Details

Date: 09 May 2021
Orbit: 763 x 784 km, 74.0° (Epoch: 24 June)

Event Time Altitude Azimuth Distance (km) Brightness Sun altitude
Exits shadow 02:18:40 - 199° (SSW) 3,202 7.0 -17.5°
Reaches altitude 10° 02:21:00 10° 199° (SSW) 2,291 6.2 -17.8°
Maximum altitude 02:26:12 86° 289° (WNW) 772 4.0 -18.5°
Drops below altitude 10° 02:31:28 10° 19° (NNE) 2,312 6.8 -19.2°
Sets 02:33:51 0° 20° (NNE) 3,245 7.6 -19.5°
